Terminal Aerodrome Forecast
Issued by NWS Houston/Galveston, TX

Home | Current Version | Previous Version | Text Only | Print | Product List | Glossary On
Versions: 1 2 3 4 5 6 7 8 9 10 11 12 13 14 15 16 17 18 19 20 21 22 23 24 25 26 27 28 29 30 31 32 33 34 35 36 37 38 39 40 41 42 43 44 45 46 47 48 49 50
000
FTUS44 KHGX 162322
TAFCLL
TAF
KCLL 162322Z 1700/1724 17015KT P6SM SCT060 SCT250
     FM170200 16008KT P6SM FEW050 FEW250
     FM170900 17006KT P6SM BKN012
     FM171500 17011KT P6SM BKN025
     FM171700 17014KT P6SM SCT040=

USA.gov is the U.S. government's official web portal to all federal, state and local government web resources and services.